This demonstration page uses our WeatherBlox Daily Observations layout. Learn more.

36.17497, -115.13722

Hourly Observations for July 26, 2016

Temp ( °F °C ) Dew Point ( °F °C ) Humidity (%) Winds ( mph kmh ) Pressure ( in mb ) Visibility ( mi km ) Precip ( " mm )
12:53 am 00:53 Clear 92 33.3 42 5.6 18 18 SE 5 7 29.68 1005 10 16.09344 0 0
1:53 am 01:53 Clear 90 32.2 46 7.8 22 22 W 5 7 29.68 1005 10 16.09344 0 0
2:53 am 02:53 Clear 89 31.7 50 10 26 26 Calm 29.68 1005 10 16.09344 0 0
3:53 am 03:53 Clear 87 30.6 52 11.1 30 30 NE 5 7 29.74 1007 10 16.09344 0 0
4:53 am 04:53 Clear 87 30.6 55 12.8 34 34 NNE 7 11 29.74 1007 10 16.09344 0 0
5:53 am 05:53 Sunny 87 30.6 55 12.8 34 34 NNE 8 13 29.77 1008 10 16.09344 0 0
6:53 am 06:53 Sunny 88 31.1 55 12.8 33 33 NE 6 9 29.8 1009 10 16.09344 0 0
7:53 am 07:53 Sunny 91 32.8 54 12.2 28 28 NE 7 11 29.77 1008 10 16.09344 0 0
8:53 am 08:53 Sunny 94 34.4 52 11.1 24 24 E 5 7 29.77 1008 10 16.09344 0 0
9:53 am 09:53 Sunny 96 35.6 50 10 21 21 E 5 7 29.77 1008 10 16.09344 0 0
10:53 am 10:53 Sunny 98 36.7 52 11.1 21 21 SSE 6 9 29.74 1007 10 16.09344 0 0
11:53 am 11:53 Sunny 101 38.3 49 9.4 17 17 N 6 9 29.71 1006 10 16.09344 0 0
12:53 pm 12:53 Sunny 104 40 50 10 16 16 SE 6 9 29.65 1004 10 16.09344 0 0
1:53 pm 13:53 Sunny 107 41.7 49 9.4 14 14 SW 9 15 29.62 1003 10 16.09344 0 0
2:53 pm 14:53 Sunny 108 42.2 48 8.9 13 13 N 6 9 29.59 1002 10 16.09344 0 0
3:53 pm 15:53 Sunny 109 42.8 45 7.2 12 12 SSW 10 17 29.56 1001 10 16.09344 0 0
4:53 pm 16:53 Sunny 109 42.8 43 6.1 11 11 SSE 8 13 29.53 1000 10 16.09344 0 0
5:53 pm 17:53 Sunny 109 42.8 42 5.6 10 10 undefined N/A 29.53 1000 10 16.09344 0 0
6:53 pm 18:53 Sunny 108 42.2 41 5 10 10 SE 3 6 29.53 1000 10 16.09344 0 0
7:53 pm 19:53 Clear 105 40.6 41 5 11 11 ESE 5 7 29.53 1000 10 16.09344 0 0
8:53 pm 20:53 Clear 102 38.9 41 5 12 12 SE 3 6 29.56 1001 10 16.09344 0 0
9:53 pm 21:53 Clear 102 38.9 45 7.2 14 14 S 7 11 29.56 1001 10 16.09344 0 0
10:53 pm 22:53 Clear 99 37 46 8 17 17 NNW 6 9 29.59 1002 10 16.09344 0 0
11:53 pm 23:53 Clear 95 35 45 7.2 18 18 NNW 6 9 29.59 1002 10 16.09344 0 0

Powered by AerisWeather